sat.trackr.live / text

‹ back to catalog

QIANFAN-54

NORAD 62255 · 2024-232U

PAYLOAD ACTIVE UNKNOWN

§ Identity

Operator
Country
PRC
Launch date
2024-12-05
Launch site
TAISC
Launch vehicle
Mass (kg)
RCS (m²)

External: N2YO · Heavens-Above · Gunter

§ Orbital elements

Epoch: 2026-09-22T20:31:23.572416Z

Period
106.59 min
Inclination
89.0160°
Eccentricity
0.0003969
Mean motion
13.51030058 rev/d
Perigee alt
1,065.5 km
Apogee alt
1,071.4 km
Semi-major
7,446.6 km
B*
1.2479e-4
RAAN
12.3711°
Arg perigee
121.3486°
Mean anomaly
238.8054°
Rev number
13,777

§ Raw data

QIANFAN-541 62255U 24232U   26265.85513394  .00000093  00000+0  12479-3 0  99992 62255  89.0160  12.3711 0003969 121.3486 238.8054 13.51030058137774

JSON: /api/v1/satellites/62255 · /tle

For live sub-satellite position, see the globe view (requires WebGL).

§ Visibility from observer

Set your observer location to see the next 7 days of passes ≥ 10°. The values pass through the URL so the page stays shareable.

No JS? Fill the form by hand. The geolocation button needs JavaScript.